Location: Mount Graham
(32.7016°N, 109.8912°W)
Time: 07:10:30
(UTC-07:00)

Cosmos 1340 - Visible Passes

Search period start: 28 January 2015 00:00
Search period end: 07 February 2015 00:00
Orbit: 518 x 523 km, 81.2° (Epoch: 27 January)

Date Brightness Start Highest point End Pass type
(mag) Time Alt. Az. Time Alt. Az. Time Alt. Az.
02 Feb 4.2 06:45:24 10° N 06:49:04 41° E 06:52:43 10° SSE visible
02 Feb 5.9 20:32:25 10° SW 20:32:28 10° SW 20:32:28 10° SW visible
03 Feb 4.5 06:31:55 10° N 06:35:28 35° ENE 06:39:02 10° SE visible
03 Feb 4.6 18:44:09 10° ESE 18:45:26 13° ESE 18:45:26 13° ESE visible
03 Feb 5.1 20:18:37 10° SW 20:20:38 22° WSW 20:20:38 22° WSW visible
04 Feb 4.8 06:18:27 10° NNE 06:21:51 30° ENE 06:25:18 10° SE visible
04 Feb 4.6 18:31:09 10° ESE 18:32:37 12° E 18:33:43 11° ENE visible
04 Feb 4.5 20:04:52 10° SW 20:08:19 31° WNW 20:08:56 29° WNW visible
05 Feb 5.0 06:05:00 10° NNE 06:08:14 26° ENE 06:11:31 10° SE visible
05 Feb 4.2 19:51:07 10° SSW 19:54:42 36° WNW 19:57:20 16° NNW visible
06 Feb 5.3 05:51:34 10° NNE 05:54:36 22° ENE 05:57:42 10° SE visible
06 Feb 3.9 19:37:24 10° SSW 19:41:05 42° W 19:44:46 10° N visible
